Regional Weather Roundup
Issued by NWS

Home | Current Version | Previous Version | Text Only | Print | Product List | Glossary Off
Versions: 1 2 3 4 5 6 7 8 9 10 11 12 13 14 15 16 17 18 19 20 21 22 23 24 25 26 27 28 29 30 31 32 33 34 35 36 37 38 39 40 41 42 43 44 45 46 47 48 49 50

000
ASUS43 KIND 260559
RWRIN

WEATHER ROUNDUP FOR INDIANA
NATIONAL WEATHER SERVICE INDIANAPOLIS IN
200 AM EDT MON JUN 26 2017

NOTE: "FAIR" INDICATES FEW OR NO CLOUDS BELOW 12,000 FEET WITH NO
SIGNIFICANT WEATHER AND/OR OBSTRUCTIONS TO VISIBILITY.

* - STATION DOES NOT REPORT WEATHER SUCH AS PRECIPITATION OR FOG.

+ - STATION NOT QUALITY CONTROLLED BY THE NATIONAL WEATHER SERVICE.
    USE DATA WITH CAUTION...ESPECIALLY DEWPOINT AND RELATIVE
    HUMIDITY OBSERVATIONS.

INZ001>003-010>013-019-020-260700-
NORTHWEST INDIANA

CITY           SKY/WX    TMP DP  RH WIND       PRES   REMARKS
KNOX *+        CLEAR     57  37  47 W8        30.10S
MONTICELLO +   CLEAR     56  49  77 W5        30.12F
6HR MIN TEMP:  56; 6HR MAX TEMP:  70;


$$

LMZ046-743>745-260700-
SOUTHERN LAKE MICHIGAN

STATION/POSITION TIME  TEMP    WIND        PRES    WAVE
                       AIR SEA DIR/SP/G            HT
                 (UTC) (F)     (DEG/KT/KT) (MB)    (FT)
BURNS HARBOR     0540   63     310/ 15/ 24 1019.3S
MICHIGAN CITY    0530   61     290/ 19/ 22   N/A
5NW MICH CITY    0550   63 66  300/ 14/ 17   N/A     5

$$

INZ004-005-014>016-021>024-260700-
NORTH CENTRAL INDIANA

CITY           SKY/WX    TMP DP  RH WIND       PRES   REMARKS
GOSHEN         CLEAR     57  51  80 W5        30.08S
6HR MIN TEMP:  55; 6HR MAX TEMP:  68; 6HR PCP:  0.07;

SOUTH BEND     PTCLDY    56  52  86 W7        30.10S
6HR MIN TEMP:  55; 6HR MAX TEMP:  68; 6HR PCP:  0.07;


$$

INZ006>009-017-018-025>027-260700-
NORTHEAST INDIANA

CITY           SKY/WX    TMP DP  RH WIND       PRES   REMARKS
FORT WAYNE     PTCLDY    59  49  69 W9        30.09S
6HR MIN TEMP:  59; 6HR MAX TEMP:  70;

KENDALLVILLE + CLOUDY    57  53  87 W5        30.09S

$$

INZ028-029-035-036-043>045-051>053-260700-
WEST CENTRAL INDIANA

CITY           SKY/WX    TMP DP  RH WIND       PRES   REMARKS
LAFAYETTE      CLEAR     53  51  93 W3        30.14R
6HR MIN TEMP:  53; 6HR MAX TEMP:  69;

TERRE HAUTE    CLEAR     58  49  72 NW3       30.17S
6HR MIN TEMP:  58; 6HR MAX TEMP:  73;


$$

INZ030>032-037>040-046>048-054>057-064-065-260700-
CENTRAL INDIANA

CITY           SKY/WX    TMP DP  RH WIND       PRES   REMARKS
GREENWOOD *+   CLEAR     59  49  69 CALM      30.16S
INDIANAPOLIS   CLEAR     59  49  69 W7        30.15R
6HR MIN TEMP:  59; 6HR MAX TEMP:  72;

-EAGLE CREEK   CLEAR     61  49  64 CALM      30.14S
6HR MIN TEMP:  61; 6HR MAX TEMP:  72;

KOKOMO +       CLEAR     58  50  75 W8        30.13F
6HR MIN TEMP:  57; 6HR MAX TEMP:  69;

MT COMFORT *+  CLEAR     55  48  76 W6        30.14S
SHELBYVILLE    CLEAR     61  47  59 W6        30.14S
6HR MIN TEMP:  61; 6HR MAX TEMP:  74;


$$

INZ033-034-041-042-049-050-058-059-260700-
EAST CENTRAL INDIANA

CITY           SKY/WX    TMP DP  RH WIND       PRES   REMARKS
MUNCIE         CLEAR     59  50  72 W6        30.12S
6HR MIN TEMP:  59; 6HR MAX TEMP:  72;

RICHMOND +     PTCLDY    55  50  82 W6        30.14S

$$

INZ060-061-067>069-081>083-085>088-260700-
SOUTHWEST INDIANA

CITY           SKY/WX    TMP DP  RH WIND       PRES   REMARKS
EVANSVILLE     CLEAR     63  51  65 CALM      30.18F
6HR MIN TEMP:  62; 6HR MAX TEMP:  79;

HUNTINGBURG *+ CLEAR     59  52  77 CALM      30.18S
6HR MIN TEMP:  59; 6HR MAX TEMP:  77;


$$

INZ062-063-066-070>080-084-089>092-260700-
SOUTH CENTRAL AND SOUTHEAST INDIANA

CITY           SKY/WX    TMP DP  RH WIND       PRES   REMARKS
BLOOMINGTON    CLEAR     55  49  80 W3        30.17R
6HR MIN TEMP:  54; 6HR MAX TEMP:  74;

MADISON *+     CLEAR     55  54  94 CALM      30.17S
SEYMOUR +      CLEAR    N/A N/A N/A CALM      30.15S

$$





USA.gov is the U.S. government's official web portal to all federal, state and local government web resources and services.